Tracking 19242 objects as of 15-Aug-2018
HD Live streaming from Space Station
objects crossing your sky now

INFORMATOR 1

Track INFORMATOR 1 now!
10-day predictions
INFORMATOR 1 is classified as:


NORAD ID: 21087
Int'l Code: 1991-006A
Perigee: 962.7 km
Apogee: 1,013.0 km
Inclination: 82.9 °
Period: 104.7 minutes
Semi major axis: 7358 km
RCS: 1.8857 m2 (large)
Launch date: January 29, 1991
Source: Commonwealth of Independent States (former USSR) (CIS)
Launch site: PLESETSK MISSILE AND SPACE COMPLEX (PKMTR)
aabbcc
Your satellite tracking list
Your tracking list is empty




NASA's NSSDC Master Catalog

Two Line Element Set (TLE):
1 21087U 91006A   18226.76347740  .00000015  00000-0 -27190-6 0  9993
2 21087  82.9411  87.3616 0034193 310.2943 103.7707 13.75264599382221
Source of the keplerian elements: AFSPC